Location: *
(46.1333°S, 161.2167°W)
Time: 04:08:45
(UTC+00:00)

Envisat - Pass Details

Date: 15 July 2020
Orbit: 764 x 766 km, 98.1° (Epoch: 10 August)

Event Time Altitude Azimuth Distance (km) Brightness Sun altitude
Rises 16:49:17 0° 350° (N) 3,227 6.3 -15.5°
Reaches altitude 10° 16:51:46 10° 341° (NNW) 2,310 5.4 -15.1°
Maximum altitude 16:56:23 34° 276° (W) 1,256 3.6 -14.3°
Drops below altitude 10° 17:01:04 10° 211° (SSW) 2,339 5.1 -13.5°
Enters shadow 17:01:06 10° 210° (SSW) 2,348 5.1 -13.5°
